Tracking 31027 objects as of 19-Jul-2025
HD Live streaming from Space Station
objects crossing your sky now

COSMOS 839 DEB

Track COSMOS 839 DEB now!
10-day predictions


NORAD ID: 18428
Int'l Code: 1976-067BM
Perigee: 924.3 km
Apogee: 2,130.4 km
Inclination: 65.7 °
Period: 116.4 minutes
Semi major axis: 7898 km
RCS: 0.0096 m2 (small)
Launch date: July 8, 1976
Source: Commonwealth of Independent States (former USSR) (CIS)
Launch site: PLESETSK MISSILE AND SPACE COMPLEX (PKMTR)

Note: This is SATELLITE DEBRIS
Your satellite tracking list
ATLAS 5 CENTAUR DEB
Track 1 satellite(s)




NASA's NSSDC Master Catalog

Two Line Element Set (TLE):
1 18428U 76067BM  25199.76985355  .00001359  00000-0  40399-2 0  9998
2 18428  65.7330 120.7504 0763527  49.9546 341.4017 12.36806704708704
Source of the keplerian elements: AFSPC